Regional Weather Roundup
Issued by NWS

Home | Current Version | Previous Version | Graphics & Text | Print | Product List | Glossary On
Versions: 1 2 3 4 5 6 7 8 9 10 11 12 13 14 15 16 17 18 19 20 21 22 23 24 25 26 27 28 29 30 31 32 33 34 35 36 37 38 39 40 41 42 43 44 45 46 47 48 49 50
000
ASUS43 KMPX 231901
RWRMN
WEATHER ROUNDUP FOR MINNESOTA
NATIONAL WEATHER SERVICE TWIN CITIES/CHANHASSEN MN
200 PM CDT WED AUG 23 2017


NOTE: "FAIR" INDICATES FEW OR NO CLOUDS BELOW 12,000 FEET WITH NO
SIGNIFICANT WEATHER AND/OR OBSTRUCTIONS TO VISIBILITY. N/A MEANS
CURRENT SKY AND/OR WEATHER CONDITIONS ARE NOT AVAILABLE.

MNZ060>063-068>070-232000-
   Twin Cities Metro

CITY           SKY/WX    TMP DP  RH WIND       PRES   REMARKS
TWIN CITIES    MOSUNNY   75  52  44 NW12      30.08F
ST PAUL        SUNNY     73  54  51 N8        30.08F
CRYSTAL        SUNNY     73  50  44 W5        30.07F
BLAINE         MOSUNNY   73  54  49 NW7       30.08F
LAKEVILLE      SUNNY     72  54  53 NW8       30.09F
EDEN PRAIRIE   SUNNY     75  53  46 N10       30.08S
SOUTH ST PAUL  SUNNY     73  51  46 NW7       30.08F
LAKE ELMO      FAIR      70  54  56 NW3       30.09F
$$
MNZ001>005-007-008-013>017-022>024-027-028-232000-
   Northwest Minnesota

CITY           SKY/WX    TMP DP  RH WIND       PRES   REMARKS
BEMIDJI        SUNNY     66  48  52 CALM      30.09F
HALLOCK        CLOUDY    64  55  72 E7        30.07F
ROSEAU         CLOUDY    63  52  67 CALM      30.11S
WARROAD        LGT RAIN  61  54  77 NE5       30.12R
CROOKSTON      CLOUDY    73  48  40 S3        30.07F
FOSSTON        SUNNY     73  54  49 N5        30.09S
DETROIT LAKES  SUNNY     70  48  46 CALM      30.09F
MOORHEAD       SUNNY     73  48  40 CALM      30.06F
PARK RAPIDS    SUNNY     72  49  44 VRB7      30.08F
MAHNOMEN       FAIR      70  48  45 CALM      30.08F
$$
MNZ006-009>011-018-025>026-232000-
   North Central Minnesota

CITY           SKY/WX    TMP DP  RH WIND       PRES   REMARKS
BAUDETTE       CLOUDY    61  52  72 N5        30.10F
FLAG ISLAND    MOSUNNY   61  46  59 CALM      30.09F
INTL FALLS     MOSUNNY   64  48  56 VRB6      30.09F
WASKISH        CLOUDY    64  54  68 SW6       30.10F
BIG FORK       MOSUNNY   63  46  55 CALM      30.09F
LONGVILLE      SUNNY     68  52  56 W6        30.09F
GRAND RAPIDS   MOSUNNY   65  49  56 VRB7G16   30.11S
CRANE LAKE     MOSUNNY   61  46  59 N5        30.11F
ORR            MOSUNNY   64  45  48 W3        30.07F
COOK           PTSUNNY   63  46  55 NW7       30.10S
WALKER         FAIR      66  52  59 NE6       30.08F
$$
MNZ012-019>021-037-232000-
   Northeast Minnesota

CITY           SKY/WX    TMP DP  RH WIND       PRES   REMARKS
DULUTH         PTSUNNY   64  47  53 N12       30.07F
ELY            MOSUNNY   61  43  51 NW7       30.08F
HIBBING        CLOUDY    63  46  54 N8        30.08F
EVELETH        MOSUNNY   63  34  34 N7        30.10S
DULUTH HARBOR  PTSUNNY   66  50  55 CALM      30.08S
GRAND MARAIS     N/A     68  36  30 CALM      30.05S
$$
MNZ029>031-032-039>041-046>048-054>057-064-232000-
   West Central Minnesota

CITY           SKY/WX    TMP DP  RH WIND       PRES   REMARKS
FERGUS FALLS   SUNNY     72  48  43 CALM      30.06F
WHEATON        SUNNY     73  48  40 SW3       30.08F
MORRIS         SUNNY     75  46  35 CALM      30.07F
ALEXANDRIA     SUNNY     73  50  44 SW7       30.11F
ELBOW LAKE     FAIR      72  50  45 SW3       30.08F HAZE
WADENA         SUNNY     70  48  46 CALM      30.08F
GLENWOOD       SUNNY     73  48  40 N3        30.10F
APPLETON       SUNNY     75  46  35 SW3       30.08F
BENSON         SUNNY     75  46  35 CALM      30.10F
ORTONVILLE     SUNNY     75  48  38 MISG      30.08S
MADISON        SUNNY     77  55  47 SE8       30.08F
WILLMAR        FAIR      73  48  40 CALM      30.11F
$$
MNZ033>034-036-042>043-049>051-058-059-232000-
   Central Minnesota

CITY           SKY/WX    TMP DP  RH WIND       PRES   REMARKS
ST CLOUD       SUNNY     73  53  49 W7        30.08F
SAUK CENTRE    FAIR      72  49  43 W6        30.09F
PAYNESVILLE    SUNNY     73  51  45 NW3       30.10F
AITKIN         PTSUNNY   66  48  52 N8        30.08S
PINE RIVER     SUNNY     64  48  55 CALM      30.11F
BRAINERD       SUNNY     68  51  54 VRB5      30.09F
STAPLES        SUNNY     72  46  40 N6        30.09S
LONG PRAIRIE   FAIR      70  50  49 W5        30.10S
LITTLE FALLS   SUNNY     70  46  43 CALM      30.09F
LITCHFIELD     SUNNY     75  52  43 NW7       30.10F
BUFFALO        SUNNY     73  49  43 N6        30.10F
MAPLE LAKE     SUNNY     73  54  50 W7        30.10S
HUTCHINSON     CLOUDY    74  54  48 W5        30.11F
$$
MNZ037-044-045-052-053-232000-
   East Central Minnesota

CITY           SKY/WX    TMP DP  RH WIND       PRES   REMARKS
PRINCETON      SUNNY     73  54  49 W5        30.09S
MORA           MOSUNNY   68  50  52 NW5       30.10F
CAMBRIDGE      MOSUNNY   72  54  53 NW6       30.09S
RUSH CITY      MOSUNNY   70  51  50 N5        30.08F HAZE
MOOSE LAKE     PTSUNNY   66  45  45 CALM      30.06F
HINCKLEY       FAIR      68  50  52 NW8       30.08F
CLOQUET        MOSUNNY   64  45  48 N7        30.08F
MCGREGOR       CLOUDY    66  46  48 N6        30.09S
$$
MNZ071>073-080-081-089-090-097-098-232000-
   Southwest Minnesota

CITY           SKY/WX    TMP DP  RH WIND       PRES   REMARKS
MONTEVIDEO     SUNNY     79  52  38 CALM      30.09F
GRANITE FALLS  SUNNY     75  49  40 CALM      30.11F
CANBY          MOSUNNY   77  49  37 CALM      30.09F
MARSHALL       PTSUNNY   74  50  42 N3        30.09F
REDWOOD FALLS  SUNNY     76  48  37 CALM      30.09F
OLIVIA         SUNNY     73  50  43 CALM      30.09F
PIPESTONE      SUNNY     75  54  46 SW7       30.11F
WINDOM           N/A     75  46  35 N3        30.12S
WORTHINGTON    MOSUNNY   73  50  44 NW7       30.12F
JACKSON        SUNNY     73  50  43 CALM      30.13S
TRACY          SUNNY     75  52  44 W3        30.11S
SLAYTON        PTSUNNY   73  48  41 CALM      30.13F
$$
MNZ065>067-074>077-082>085-091>093-232000-
   South Central Minnesota

CITY           SKY/WX    TMP DP  RH WIND       PRES   REMARKS
MANKATO        SUNNY     73  49  42 NW9       30.11F
NEW ULM        SUNNY     73  48  40 NW5       30.10F
ST JAMES       SUNNY     73  48  40 W3        30.12F
FAIRMONT       SUNNY     74  48  39 VRB3      30.12F
GLENCOE        SUNNY     74  55  52 NW6       30.09F
FARIBAULT      MOSUNNY   73  54  49 NW8       30.10F
OWATONNA       SUNNY     73  54  49 NW12      30.10F
WASECA         SUNNY     72  52  49 W7        30.12F
ALBERT LEA     SUNNY     75  54  46 NW7       30.11F
$$
MNZ078>079-086>088-094>096-232000-
   Southeast Minnesota

CITY           SKY/WX    TMP DP  RH WIND       PRES   REMARKS
ROCHESTER      MOSUNNY   72  54  53 NW13G23   30.10F
RED WING       MOSUNNY   73  48  40 NW8G16    30.07F
STANTON        SUNNY     74  53  47 NW12G18   30.08F
DODGE CENTER   MOSUNNY   72  52  49 W9        30.10F
WINONA         SUNNY     73  54  49 NW9G16    30.08S
AUSTIN         SUNNY     72  48  43 NW13      30.11S
PRESTON        SUNNY     71  49  46 NW16G22   30.10S
$$
ABBREVIATIONS USED IN REMARKS
   TC - TEMPERATURES IN CELSIUS
  WCI - WIND CHILL INDEX
   HX - HEAT INDEX
  VSB - VISIBILITY
$$




USA.gov is the U.S. government's official web portal to all federal, state and local government web resources and services.